Location: Melbourne
(37.8170°S, 144.9670°E)
Time: 11:27:57
(UTC+11:00)

ISS - All Passes

Search period start: 13 February 2016 00:00
Search period end: 23 February 2016 00:00
Orbit: 398 x 408 km, 51.6° (Epoch: 12 February)

Date Brightness Start Highest point End Pass type
(mag) Time Alt. Az. Time Alt. Az. Time Alt. Az.
13 Feb - 03:22:57 10° NNW 03:26:05 40° NE 03:29:15 10° ESE visible
13 Feb - 04:59:52 10° W 05:02:38 23° SSW 05:05:25 10° SSE visible
13 Feb - 09:52:16 10° SSW 09:55:15 28° SSE 09:58:13 10° E daylight
13 Feb - 11:28:42 10° WSW 11:31:41 30° NW 11:34:38 10° NNE daylight
14 Feb - 02:31:02 10° N 02:33:30 20° NE 02:36:00 10° E night (unlit)
14 Feb - 04:06:37 10° WNW 04:09:45 39° SW 04:12:56 10° SE visible
14 Feb - 05:46:02 10° SSW 05:46:57 11° SSW 05:47:53 10° S visible
14 Feb - 08:59:51 10° SSW 09:02:18 18° SSE 09:04:45 10° ESE daylight
14 Feb - 10:35:42 10° SW 10:39:02 64° NW 10:42:20 10° NE daylight
15 Feb - 03:13:37 10° NW 03:16:56 76° SW 03:20:17 10° SE visible
15 Feb - 04:51:55 10° WSW 04:53:51 14° SSW 04:55:48 10° SSE visible
15 Feb - 08:07:33 10° S 08:09:15 13° SSE 08:10:57 10° SE daylight
15 Feb - 09:42:56 10° SW 09:46:16 61° SE 09:49:34 10° ENE daylight
15 Feb - 11:20:55 10° WNW 11:22:19 12° NW 11:23:43 10° NNW daylight
16 Feb - 02:20:57 10° NNW 02:24:10 50° NE 02:27:25 10° ESE night (unlit)
16 Feb - 03:58:12 10° WSW 04:00:48 21° SSW 04:03:25 10° SSE visible
16 Feb - 07:15:50 10° S 07:16:06 10° SSE 07:16:22 10° SSE daylight
16 Feb - 08:50:17 10° SW 08:53:23 33° SSE 08:56:26 10° E daylight
16 Feb - 10:26:56 10° WSW 10:29:43 24° NW 10:32:28 10° N daylight
17 Feb - 01:28:45 10° N 01:31:28 24° NE 01:34:13 10° ESE night (unlit)
17 Feb - 03:04:44 10° W 03:07:47 33° SSW 03:10:52 10° SE visible
17 Feb - 04:44:50 10° SSW 04:45:04 10° SSW 04:45:19 10° S visible
17 Feb - 07:57:44 10° SSW 08:00:21 21° SSE 08:02:58 10° ESE daylight
17 Feb - 09:33:44 10° WSW 09:37:00 51° NW 09:40:14 10° NNE daylight
18 Feb - 00:37:31 10° NNE 00:38:48 12° NE 00:40:07 10° ENE night (unlit)
18 Feb - 02:11:34 10° WNW 02:14:51 62° SW 02:18:10 10° SE night (unlit)
18 Feb - 03:50:10 10° SW 03:51:51 13° SSW 03:53:32 10° S visible
18 Feb - 07:05:17 10° SSW 07:07:14 14° SSE 07:09:10 10° ESE daylight
18 Feb - 08:40:48 10° SW 08:44:10 76° SE 08:47:29 10° NE daylight
19 Feb - 01:18:42 10° NW 01:21:58 63° NE 01:25:16 10° SE night (unlit)
19 Feb - 02:56:14 10° WSW 02:58:40 18° SSW 03:01:07 10° SSE visible
19 Feb - 06:13:07 10° S 06:14:00 11° SSE 06:14:53 10° SSE visible
19 Feb - 07:48:00 10° SW 07:51:11 38° SE 07:54:20 10° ENE daylight
19 Feb - 09:24:55 10° W 09:27:26 20° NW 09:29:57 10° N daylight
20 Feb - 00:26:14 10° NNW 00:29:08 29° NE 00:32:04 10° ESE night (unlit)
20 Feb - 02:02:36 10° W 02:05:33 28° SSW 02:08:30 10° SSE night (unlit)
20 Feb - 06:55:20 10° SSW 06:58:07 23° SSE 07:00:52 10° E daylight
20 Feb - 08:31:28 10° WSW 08:34:39 41° NW 08:37:47 10° NNE daylight
20 Feb - 23:34:29 10° NNE 23:36:22 14° NE 23:38:15 10° E night (unlit)
21 Feb - 01:09:15 10° WNW 01:12:28 51° SW 01:15:45 10° SE night (unlit)
21 Feb - 02:48:08 10° SW 02:49:33 12° SSW 02:50:58 10° S visible
21 Feb - 06:02:45 10° SSW 06:04:54 16° SSE 06:07:02 10° ESE visible
21 Feb - 07:38:22 10° SW 07:41:44 88° NW 07:45:04 10° NE daylight
22 Feb - 00:16:10 10° NW 00:19:28 78° NE 00:22:48 10° SE night (unlit)
22 Feb - 01:54:01 10° WSW 01:56:15 17° SSW 01:58:30 10° SSE night (unlit)
22 Feb - 05:10:21 10° S 05:11:35 12° SSE 05:12:49 10° SE visible
22 Feb - 06:45:28 10° SW 06:48:42 45° SE 06:51:55 10° ENE daylight
22 Feb - 08:22:40 10° W 08:24:52 17° NW 08:27:03 10° N daylight
22 Feb - 23:23:29 10° NNW 23:26:31 35° NE 23:29:36 10° ESE night (unlit)
